Beaufort, SC

11:35 PM EST on February 26, 2017 (GMT -0500)
Beaufort Marine Corps Air Station

Weather History for KNBC - January, 2013

Change the Weather History Date:

Tuesday, January 15, 2013

  Actual Average Record
Temperature  
Mean Temperature 67 °F -  
Max Temperature 75 °F 57 °F 84 °F (1950)
Min Temperature 59 °F 37 °F 16 °F (1948)
Cooling Degree Days 2    
Growing Degree Days 17 (Base 50)    
Moisture  
Dew Point 60 °F    
Average Humidity 84    
Maximum Humidity 93    
Minimum Humidity 64    
Precipitation  
Precipitation 0.01 in - - ()
Sea Level Pressure  
Sea Level Pressure 30.11 in    
Wind  
Wind Speed 4 mph (South)    
Max Wind Speed 9 mph    
Max Gust Speed -    
Visibility 10 miles    
Events      
Averages and records for this station are not official NWS values.
T = Trace of Precipitation, MM = Missing Value Source: NWS Daily Summary

Daily Weather History Graph

Daily Weather History Graph

Search for Another Location

Airport or City:

Trip Planner

Search our weather history database for the weather conditions in past years. The results will help you decide how hot, cold, wet, or windy it might be!

Date:

Astronomy

Jan. 15, 2013 Rise Set
Actual Time 7:24 AM EST 5:40 PM EST
Civil Twilight 6:58 AM EST 6:07 PM EST
Nautical Twilight 6:27 AM EST 6:37 PM EST
Astronomical Twilight 5:58 AM EST 7:06 PM EST
Moon 9:46 AM EST (1/15) 10:09 PM EST (1/15)
Length of Visible Light 11h 08m
Length of Day
10h 15m
Waxing Crescent, 19% of the Moon is Illuminated
Jan 15
Waxing Crescent
Jan 18
First Quarter
Jan 26
Full
Feb 3
Last Quarter
Feb 10
New

Hourly Weather History & Observations

Time (EST) Temp. Dew Point Humidity Pressure Visibility Wind Dir Wind Speed Gust Speed Precip Events Conditions
12:56 AM 62.1 °F 59.0 °F 90% 30.16 in 10.0 mi SSW 3.5 mph - N/A   Scattered Clouds
1:56 AM 61.0 °F 59.0 °F 93% 30.17 in 8.0 mi SSW 3.5 mph - N/A   Scattered Clouds
2:56 AM 62.1 °F 59.0 °F 90% 30.15 in 10.0 mi Calm Calm - 0.01 in   Partly Cloudy
3:56 AM 60.1 °F 57.9 °F 93% 30.14 in 9.0 mi Calm Calm - N/A   Clear
4:56 AM 60.1 °F 57.9 °F 93% 30.12 in 8.0 mi Calm Calm - N/A   Clear
5:56 AM 59.0 °F 57.0 °F 93% 30.12 in 10.0 mi SW 3.5 mph - N/A   Clear
6:56 AM 60.1 °F 57.0 °F 90% 30.12 in 9.0 mi Calm Calm - N/A   Mostly Cloudy
7:56 AM 61.0 °F 57.9 °F 90% 30.14 in 5.0 mi SSW 3.5 mph - N/A   Mostly Cloudy
8:56 AM 66.0 °F 62.1 °F 87% 30.16 in 10.0 mi SW 4.6 mph - N/A   Mostly Cloudy
9:56 AM 71.1 °F 63.0 °F 75% 30.17 in 10.0 mi SW 6.9 mph - N/A   Mostly Cloudy
10:56 AM 71.1 °F 63.0 °F 75% 30.15 in 10.0 mi South 4.6 mph - N/A   Mostly Cloudy
11:56 AM 71.1 °F 62.1 °F 73% 30.12 in 10.0 mi SSE 9.2 mph - N/A   Mostly Cloudy
12:56 PM 72.0 °F 62.1 °F 71% 30.09 in 10.0 mi SSE 6.9 mph - N/A   Mostly Cloudy
1:56 PM 75.0 °F 62.1 °F 64% 30.07 in 10.0 mi South 5.8 mph - N/A   Mostly Cloudy
2:56 PM 73.9 °F 62.1 °F 66% 30.07 in 10.0 mi South 8.1 mph - N/A   Mostly Cloudy
3:56 PM 72.0 °F 63.0 °F 73% 30.08 in 10.0 mi South 9.2 mph - N/A   Mostly Cloudy
4:56 PM 68.0 °F 62.1 °F 81% 30.09 in 10.0 mi South 9.2 mph - N/A   Clear
5:56 PM 64.9 °F 61.0 °F 87% 30.09 in 10.0 mi South 5.8 mph - N/A   Clear
6:56 PM 63.0 °F 60.1 °F 90% 30.10 in 10.0 mi South 5.8 mph - N/A   Clear
7:56 PM 63.0 °F 60.1 °F 90% 30.10 in 10.0 mi South 4.6 mph - N/A   Clear
8:56 PM 63.0 °F 60.1 °F 90% 30.08 in 10.0 mi South 4.6 mph - N/A   Partly Cloudy
9:56 PM 64.0 °F 61.0 °F 90% 30.08 in 10.0 mi South 4.6 mph - N/A   Overcast
10:56 PM 64.0 °F 61.0 °F 90% 30.06 in 10.0 mi South 4.6 mph - N/A   Clear
11:56 PM 64.0 °F 61.0 °F 90% 30.06 in 10.0 mi SW 4.6 mph - N/A   Clear